This is the latest recevied weather packets stored in our database for station/object W0SS-13. If no packets are shown the sender has not sent any weather packets the latest 10 day(s).
| Time | Temp. | Humidity | Pressure | Rain* | Wind** | Luminosity | Snow |
|---|---|---|---|---|---|---|---|
| 1777906320 | 21.11° C | 54% | 1004.9 hPa | 0 mm | - | 501 W/m² | - |
| 1777906018 | 20.56° C | 53% | 1004.9 hPa | 0 mm | - | 485 W/m² | - |
| 1777905714 | 20.56° C | 54% | 1004.8 hPa | 0 mm | - | 477 W/m² | - |
| 1777905411 | 20.56° C | 53% | 1004.9 hPa | 0 mm | - | 315 W/m² | - |
| 1777905109 | 20.56° C | 54% | 1004.8 hPa | 0 mm | - | 388 W/m² | - |
| 1777904806 | 20° C | 57% | 1005 hPa | 0 mm | - | 372 W/m² | - |
| 1777904503 | 20° C | 56% | 1004.9 hPa | 0 mm | - | 319 W/m² | - |
| 1777904199 | 20° C | 56% | 1005.1 hPa | 0 mm | - | 286 W/m² | - |
| 1777903897 | 19.44° C | 56% | 1004.9 hPa | 0 mm | - | 285 W/m² | - |
| 1777903594 | 18.89° C | 57% | 1005.1 hPa | 0 mm | - | 380 W/m² | - |
| 1777903289 | 19.44° C | 57% | 1005 hPa | 0 mm | - | 103 W/m² | - |
| 1777902986 | 19.44° C | 55% | 1005.1 hPa | 0 mm | - | 93 W/m² | - |
| 1777902682 | 20° C | 55% | 1005.1 hPa | 0 mm | - | 264 W/m² | - |
| 1777902380 | 20° C | 56% | 1004.7 hPa | 0 mm | - | 160 W/m² | - |
| 1777902076 | 20° C | 58% | 1004.6 hPa | 0 mm | - | 304 W/m² | - |
| 1777901775 | 19.44° C | 57% | 1004.9 hPa | 0 mm | - | 352 W/m² | - |
| 1777901472 | 18.89° C | 59% | 1004.9 hPa | 0 mm | - | 326 W/m² | - |
| 1777901169 | 18.33° C | 58% | 1004.8 hPa | 0 mm | - | 119 W/m² | - |
| 1777900867 | 18.33° C | 58% | 1004.9 hPa | 0 mm | - | 103 W/m² | - |
| 1777900564 | 18.33° C | 58% | 1005 hPa | 0 mm | - | 101 W/m² | - |
| 1777900261 | 18.33° C | 58% | 1004.7 hPa | 0 mm | - | 88 W/m² | - |
| 1777899957 | 18.33° C | 59% | 1004.7 hPa | 0 mm | - | 83 W/m² | - |
| 1777899654 | 18.33° C | 59% | 1004.7 hPa | 0 mm | - | 108 W/m² | - |
| 1777899352 | 18.33° C | 59% | 1004.7 hPa | 0 mm | - | 207 W/m² | - |
| 1777899049 | 17.78° C | 60% | 1004.7 hPa | 0 mm | - | 172 W/m² | - |
* Rain latest hour (hover to see other rain measurements)
** Current wind speed in m/s (hover to see current wind gust speed)